CES778 VHHH-ZSSS

Flight info

Callsign CES778
Flight time 0h 47m
Altitude 39000
Route LEKEN V601 DOTMI/K0933S1130 A470 LJG B221 SHZ G204 AND AND62A
Aircraft C750/M-SBDE3FGHRWXY/S

Departure

Time 2026-05-05 08:55
Airport Hong Kong International Airport (VHHH)

Arrival

Time 2026-05-05 09:42
Airport Shanghai Hongqiao International Airport (ZSSS)
Time Latitude Longitude Altitude Speed Heading
2026-05-05 08:41 22.29757 113.91172 34 ft 0 kts 340°
2026-05-05 08:50 22.29763 113.91170 34 ft 2 kts 342°
2026-05-05 08:50 22.29780 113.91169 34 ft 3 kts 355°
2026-05-05 08:50 22.29801 113.91167 34 ft 4 kts 355°
2026-05-05 08:51 22.29833 113.91164 34 ft 5 kts 355°
2026-05-05 08:51 22.29855 113.91162 34 ft 3 kts 355°
2026-05-05 08:51 22.29869 113.91129 34 ft 9 kts 251°
2026-05-05 08:51 22.29837 113.91033 34 ft 18 kts 251°
2026-05-05 08:52 22.29784 113.90867 34 ft 28 kts 251°
2026-05-05 08:52 22.29709 113.90633 33 ft 35 kts 250°
2026-05-05 08:52 22.29630 113.90392 32 ft 33 kts 251°
2026-05-05 08:52 22.29557 113.90166 33 ft 31 kts 251°
2026-05-05 08:53 22.29493 113.89965 33 ft 26 kts 251°
2026-05-05 08:53 22.29517 113.89857 34 ft 0 kts 319°
2026-05-05 08:53 22.29522 113.89853 34 ft 2 kts 322°
2026-05-05 08:54 22.29547 113.89841 34 ft 6 kts 341°
2026-05-05 08:54 22.29596 113.89822 34 ft 9 kts 341°
2026-05-05 08:54 22.29642 113.89858 33 ft 12 kts 81°
2026-05-05 08:54 22.29669 113.89946 33 ft 16 kts 70°
2026-05-05 08:55 22.29780 113.90288 30 ft 100 kts 71°
2026-05-05 08:55 22.30095 113.91250 154 ft 153 kts 68°
2026-05-05 08:55 22.30463 113.92379 760 ft 164 kts 71°
2026-05-05 08:55 22.30832 113.93550 1426 ft 159 kts 73°
2026-05-05 08:56 22.31218 113.94758 1558 ft 188 kts 72°
2026-05-05 08:56 22.31678 113.96195 1997 ft 212 kts 72°
2026-05-05 08:56 22.32164 113.97697 2996 ft 212 kts 72°
2026-05-05 08:56 22.32661 113.99243 3756 ft 223 kts 72°
2026-05-05 08:57 22.33177 114.00848 4560 ft 230 kts 72°
2026-05-05 08:57 22.33697 114.02509 5341 ft 236 kts 75°
2026-05-05 08:57 22.33791 114.04285 6071 ft 239 kts 100°
2026-05-05 08:57 22.33272 114.05987 6804 ft 239 kts 122°
2026-05-05 08:58 22.32231 114.07343 7591 ft 238 kts 143°
2026-05-05 08:58 22.30775 114.08296 8113 ft 256 kts 161°
2026-05-05 08:58 22.29027 114.08706 8903 ft 256 kts 180°
2026-05-05 08:58 22.27229 114.08706 9715 ft 266 kts 184°
2026-05-05 08:59 22.25298 114.08684 10129 ft 288 kts 184°
2026-05-05 08:59 22.23209 114.08669 10418 ft 312 kts 184°
2026-05-05 08:59 22.20939 114.08649 10552 ft 339 kts 184°
2026-05-05 08:59 22.18529 114.08917 10837 ft 358 kts 167°
2026-05-05 09:00 22.15730 114.10563 11738 ft 370 kts 142°
2026-05-05 09:00 22.12885 114.15322 13082 ft 386 kts 119°
2026-05-05 09:00 22.10446 114.20496 14241 ft 397 kts 120°
2026-05-05 09:00 22.07736 114.25726 15199 ft 401 kts 132°
2026-05-05 09:01 22.03470 114.29527 16241 ft 399 kts 149°
2026-05-05 09:01 21.98959 114.33125 17384 ft 408 kts 148°
2026-05-05 09:01 21.94327 114.36756 18512 ft 415 kts 149°
2026-05-05 09:01 21.89784 114.40463 18919 ft 417 kts 140°
2026-05-05 09:02 21.86485 114.45849 19731 ft 440 kts 115°
2026-05-05 09:02 21.85420 114.52394 20785 ft 453 kts 89°
2026-05-05 09:02 21.85972 114.59208 21910 ft 460 kts 85°
2026-05-05 09:02 21.86459 114.66065 22997 ft 468 kts 85°
2026-05-05 09:03 21.87013 114.73109 24000 ft 477 kts 84°
2026-05-05 09:03 21.87540 114.80277 24920 ft 484 kts 85°
2026-05-05 09:03 21.88092 114.87576 25841 ft 493 kts 85°
2026-05-05 09:03 21.88508 114.95005 26725 ft 501 kts 88°
2026-05-05 09:04 21.88709 115.02575 27649 ft 508 kts 88°
2026-05-05 09:04 21.88984 115.10283 28559 ft 516 kts 88°
2026-05-05 09:04 21.89205 115.18074 29434 ft 524 kts 88°
2026-05-05 09:04 21.89459 115.25862 30226 ft 531 kts 88°
2026-05-05 09:05 21.89691 115.33871 30968 ft 537 kts 88°
2026-05-05 09:05 21.89935 115.41878 32091 ft 532 kts 88°
2026-05-05 09:05 21.90164 115.49825 33128 ft 531 kts 88°
2026-05-05 09:05 21.90393 115.57759 34154 ft 529 kts 88°
2026-05-05 09:06 21.91057 115.65612 35035 ft 525 kts 77°
2026-05-05 09:06 21.92786 115.73220 36035 ft 522 kts 75°
2026-05-05 09:06 21.94235 115.80929 36919 ft 522 kts 76°
2026-05-05 09:06 21.95838 115.88535 38019 ft 519 kts 75°
2026-05-05 09:07 21.97315 115.96018 38961 ft 517 kts 76°
2026-05-05 09:07 22.02413 116.10788 38969 ft 542 kts 50°
2026-05-05 09:07 22.13960 116.20686 38998 ft 527 kts 16°
2026-05-05 09:07 22.28034 116.22087 38975 ft 501 kts 342°
2026-05-05 09:08 22.41442 116.18061 38992 ft 504 kts 342°
2026-05-05 09:08 22.55697 116.17415 38991 ft 519 kts 355°
2026-05-05 09:08 22.70119 116.17918 38983 ft 533 kts
2026-05-05 09:08 22.83344 116.25976 39003 ft 563 kts 35°
2026-05-05 09:09 22.95613 116.36471 39011 ft 560 kts 30°
2026-05-05 09:09 23.20460 116.57118 39006 ft 561 kts 31°
2026-05-05 09:10 23.41200 116.74333 39018 ft 564 kts 32°
2026-05-05 09:10 23.52503 116.86436 39014 ft 577 kts 43°
2026-05-05 09:10 23.67185 117.03062 39020 ft 574 kts 41°
2026-05-05 09:11 23.86542 117.23291 39015 ft 575 kts 38°
2026-05-05 09:11 24.06394 117.42875 39013 ft 578 kts 37°
2026-05-05 09:12 24.12421 117.48714 39019 ft 579 kts 37°
2026-05-05 09:12 24.18029 117.55126 39023 ft 584 kts 44°
2026-05-05 09:13 24.23490 117.61758 39022 ft 586 kts 43°
2026-05-05 09:13 24.29023 117.68325 39026 ft 586 kts 44°
2026-05-05 09:14 24.34452 117.74921 39021 ft 586 kts 43°
2026-05-05 09:14 24.39982 117.81527 39021 ft 587 kts 44°
2026-05-05 09:15 24.45488 117.88204 39020 ft 590 kts 44°
2026-05-05 09:15 24.51029 117.94872 39022 ft 591 kts 43°
2026-05-05 09:16 24.56516 118.01515 39023 ft 590 kts 43°
2026-05-05 09:16 24.62226 118.07980 39002 ft 589 kts 41°
2026-05-05 09:17 24.73493 118.20803 39026 ft 592 kts 41°
2026-05-05 09:17 24.96369 118.46951 39039 ft 593 kts 42°
2026-05-05 09:18 25.19026 118.73577 39036 ft 597 kts 44°
2026-05-05 09:18 25.41541 119.00419 39045 ft 597 kts 42°
2026-05-05 09:19 25.64436 119.27256 39057 ft 599 kts 43°
2026-05-05 09:19 25.76713 119.39469 39064 ft 588 kts 24°
2026-05-05 09:19 25.91912 119.44767 39088 ft 567 kts
2026-05-05 09:20 26.22448 119.55144 39069 ft 582 kts 17°
2026-05-05 09:20 26.36347 119.65044 39079 ft 594 kts 28°
2026-05-05 09:20 26.50352 119.74705 39059 ft 594 kts 28°
2026-05-05 09:21 26.78267 119.94294 39074 ft 592 kts 27°
2026-05-05 09:21 27.05984 120.13944 39086 ft 594 kts 26°
2026-05-05 09:22 27.34016 120.33795 39074 ft 595 kts 26°
2026-05-05 09:22 27.62022 120.53723 39058 ft 596 kts 27°
2026-05-05 09:22 27.76383 120.62779 39050 ft 580 kts 11°
2026-05-05 09:23 27.91878 120.64691 39072 ft 553 kts 351°
2026-05-05 09:23 28.22938 120.67613 39051 ft 562 kts 357°
2026-05-05 09:24 28.53897 120.70624 39045 ft 563 kts 357°
2026-05-05 09:24 28.85203 120.73924 39031 ft 563 kts 357°
2026-05-05 09:25 29.11428 120.76632 39019 ft 560 kts 357°
2026-05-05 09:25 29.19194 120.77428 39007 ft 560 kts 357°
2026-05-05 09:26 29.26956 120.78236 38996 ft 560 kts 357°
2026-05-05 09:26 29.34721 120.79037 39011 ft 559 kts 358°
2026-05-05 09:27 29.57627 120.81528 36213 ft 523 kts
2026-05-05 09:27 29.70684 120.88304 33737 ft 519 kts 24°
2026-05-05 09:27 29.83286 120.95975 31211 ft 507 kts 25°
2026-05-05 09:27 29.95636 121.03556 28529 ft 490 kts 25°
2026-05-05 09:28 30.07359 121.10800 26042 ft 466 kts 25°
2026-05-05 09:28 30.18499 121.17709 23666 ft 443 kts 25°
2026-05-05 09:28 30.27932 121.26001 21372 ft 432 kts 56°
2026-05-05 09:28 30.33753 121.36332 19360 ft 418 kts 54°
2026-05-05 09:29 30.37137 121.40044 18428 ft 405 kts 27°
2026-05-05 09:29 30.42430 121.41341 17372 ft 385 kts 355°
2026-05-05 09:29 30.49899 121.40554 15955 ft 377 kts 352°
2026-05-05 09:29 30.60191 121.39499 13992 ft 365 kts 353°
2026-05-05 09:30 30.70172 121.38464 12061 ft 357 kts 353°
2026-05-05 09:30 30.79662 121.37479 10252 ft 312 kts 353°
2026-05-05 09:30 30.83454 121.37081 9500 ft 294 kts 353°
2026-05-05 09:30 30.85478 121.36868 9130 ft 291 kts 353°
2026-05-05 09:31 30.87491 121.36659 8753 ft 290 kts 353°
2026-05-05 09:31 30.89501 121.36447 8377 ft 289 kts 353°
2026-05-05 09:31 30.91503 121.36238 7993 ft 289 kts 354°
2026-05-05 09:31 30.93482 121.36034 7877 ft 280 kts 354°
2026-05-05 09:32 30.95411 121.35845 7871 ft 285 kts 354°
2026-05-05 09:32 30.97383 121.35653 7878 ft 283 kts 354°
2026-05-05 09:32 30.99363 121.35456 7879 ft 286 kts 354°
2026-05-05 09:32 31.01356 121.35257 7875 ft 289 kts 354°
2026-05-05 09:33 31.03355 121.35059 7872 ft 289 kts 354°
2026-05-05 09:33 31.06254 121.34772 7869 ft 286 kts 354°
2026-05-05 09:33 31.10258 121.34371 7440 ft 291 kts 354°
2026-05-05 09:33 31.13700 121.32314 6706 ft 282 kts 310°
2026-05-05 09:34 31.16088 121.28793 6073 ft 281 kts 306°
2026-05-05 09:34 31.18562 121.25299 5379 ft 278 kts 307°
2026-05-05 09:34 31.21603 121.22692 4630 ft 275 kts 346°
2026-05-05 09:34 31.25196 121.22459 4079 ft 252 kts 358°
2026-05-05 09:35 31.28631 121.22274 3490 ft 243 kts 357°
2026-05-05 09:35 31.32958 121.22037 2736 ft 223 kts 358°
2026-05-05 09:35 31.34437 121.21956 2477 ft 206 kts 357°
2026-05-05 09:36 31.35859 121.21896 2231 ft 205 kts
2026-05-05 09:36 31.37180 121.22428 1912 ft 201 kts 40°
2026-05-05 09:36 31.38012 121.23634 1959 ft 186 kts 70°
2026-05-05 09:36 31.38235 121.25075 1987 ft 182 kts 95°
2026-05-05 09:37 31.38236 121.26575 2000 ft 186 kts 95°
2026-05-05 09:37 31.38253 121.28091 1995 ft 186 kts 95°
2026-05-05 09:37 31.38264 121.29614 2015 ft 189 kts 94°
2026-05-05 09:37 31.38029 121.31084 1972 ft 181 kts 120°
2026-05-05 09:38 31.37270 121.32165 1985 ft 168 kts 146°
2026-05-05 09:38 31.36215 121.32672 1979 ft 166 kts 172°
2026-05-05 09:38 31.35057 121.32771 2015 ft 167 kts 175°
2026-05-05 09:38 31.33893 121.32861 2012 ft 167 kts 176°
2026-05-05 09:39 31.32730 121.32927 2008 ft 168 kts 176°
2026-05-05 09:39 31.31564 121.32990 1980 ft 168 kts 176°
2026-05-05 09:39 31.30397 121.33056 1768 ft 169 kts 177°
2026-05-05 09:39 31.29215 121.33121 1532 ft 167 kts 178°
2026-05-05 09:40 31.28100 121.33180 1309 ft 152 kts 176°
2026-05-05 09:40 31.27094 121.33232 1114 ft 137 kts 176°
2026-05-05 09:40 31.26220 121.33278 952 ft 117 kts 175°
2026-05-05 09:40 31.25432 121.33323 813 ft 114 kts 172°
2026-05-05 09:41 31.24629 121.33368 673 ft 115 kts 175°
2026-05-05 09:41 31.23863 121.33406 528 ft 109 kts 174°
2026-05-05 09:41 31.23074 121.33447 414 ft 116 kts 173°
2026-05-05 09:41 31.22237 121.33495 265 ft 127 kts 177°
2026-05-05 09:42 31.21351 121.33543 98 ft 126 kts 175°
2026-05-05 09:42 31.20513 121.33591 17 ft 110 kts 176°
2026-05-05 09:42 31.19907 121.33626 15 ft 60 kts 178°
2026-05-05 09:42 31.19545 121.33645 17 ft 46 kts 177°
2026-05-05 09:43 31.19335 121.33677 17 ft 22 kts 161°
2026-05-05 09:43 31.19202 121.33758 16 ft 21 kts 147°
2026-05-05 09:43 31.19118 121.33820 15 ft 13 kts 147°
2026-05-05 09:43 31.19053 121.33884 15 ft 11 kts 106°
2026-05-05 09:44 31.19092 121.33920 16 ft 9 kts 356°
2026-05-05 09:44 31.19157 121.33917 16 ft 10 kts 357°
2026-05-05 09:44 31.19232 121.33913 16 ft 11 kts 357°
2026-05-05 09:44 31.19315 121.33908 16 ft 13 kts 357°
2026-05-05 09:45 31.19408 121.33903 16 ft 14 kts 357°
2026-05-05 09:45 31.19509 121.33898 16 ft 15 kts 357°
2026-05-05 09:45 31.19609 121.33907 16 ft 13 kts 46°
2026-05-05 09:45 31.19656 121.33975 16 ft 11 kts
2026-05-05 09:46 31.19738 121.33970 15 ft 13 kts 357°
2026-05-05 09:46 31.19830 121.33965 15 ft 14 kts 357°
2026-05-05 09:46 31.19903 121.34002 15 ft 13 kts 84°
2026-05-05 09:46 31.19907 121.34109 15 ft 14 kts 87°
2026-05-05 09:47 31.19912 121.34225 15 ft 14 kts 87°
2026-05-05 09:47 31.19921 121.34317 15 ft 10 kts 52°
2026-05-05 09:47 31.19982 121.34318 15 ft 9 kts 352°
2026-05-05 09:47 31.20019 121.34349 15 ft 7 kts 85°
2026-05-05 09:48 31.20021 121.34396 15 ft 1 kts 87°
2026-05-05 09:48 31.20021 121.34397 15 ft 0 kts 87°